Lake Blue Ridge Weather Center

Moon Phase Calendar



Lake Blue Ridge Water Level
Online Cameras

 


      

Current Conditions in Blue Ridge
4/19/2021 1:55:05 PM

63°F
Feels Like 61
Clouds
Humidity
45%
Pressure
29.94"
Wind
10.2 mph (NNW)
Dew Point
41°F
UV Index
7/10 (High)
Visibility
6 mi

Hourly Forecast

Date & Time Mon, Apr 19
1:00 PM
Mon, Apr 19
2:00 PM
Mon, Apr 19
3:00 PM
Mon, Apr 19
4:00 PM
Mon, Apr 19
5:00 PM
Mon, Apr 19
6:00 PM
Mon, Apr 19
7:00 PM
Mon, Apr 19
8:00 PM
Mon, Apr 19
9:00 PM
Mon, Apr 19
10:00 PM
Mon, Apr 19
11:00 PM
Tue, Apr 20
12:00 AM
Tue, Apr 20
1:00 AM
Tue, Apr 20
2:00 AM
Tue, Apr 20
3:00 AM
Tue, Apr 20
4:00 AM
Tue, Apr 20
5:00 AM
Tue, Apr 20
6:00 AM
Tue, Apr 20
7:00 AM
Tue, Apr 20
8:00 AM
Tue, Apr 20
9:00 AM
Tue, Apr 20
10:00 AM
Tue, Apr 20
11:00 AM
Tue, Apr 20
12:00 PM
Tue, Apr 20
1:00 PM
Tue, Apr 20
2:00 PM
Tue, Apr 20
3:00 PM
Tue, Apr 20
4:00 PM
Tue, Apr 20
5:00 PM
Tue, Apr 20
6:00 PM
Tue, Apr 20
7:00 PM
Tue, Apr 20
8:00 PM
Tue, Apr 20
9:00 PM
Tue, Apr 20
10:00 PM
Tue, Apr 20
11:00 PM
Wed, Apr 21
12:00 AM
Wed, Apr 21
1:00 AM
Wed, Apr 21
2:00 AM
Wed, Apr 21
3:00 AM
Wed, Apr 21
4:00 AM
Wed, Apr 21
5:00 AM
Wed, Apr 21
6:00 AM
Wed, Apr 21
7:00 AM
Wed, Apr 21
8:00 AM
Wed, Apr 21
9:00 AM
Wed, Apr 21
10:00 AM
Wed, Apr 21
11:00 AM
Wed, Apr 21
12:00 PM
Condition
Clouds

Clouds

Clouds

Clouds

Clouds

Clear

Clear

Clear

Clear

Clear

Clouds

Clouds

Clouds

Clouds

Clouds

Clouds

Clouds

Clouds

Clouds

Clouds

Clouds

Clouds

Clouds

Clouds

Clouds

Clouds

Clear

Clear

Clear

Clear

Clear

Clear

Clear

Clear

Clouds

Clouds

Clouds

Clouds

Clear

Clouds

Clouds

Clouds

Clouds

Rain

Clouds

Clouds

Clouds

Clouds
Temperature 62°F63°F63°F63°F62°F61°F59°F52°F49°F47°F47°F46°F45°F45°F45°F45°F44°F45°F44°F48°F53°F57°F61°F64°F66°F67°F68°F68°F68°F66°F64°F56°F53°F52°F54°F53°F54°F52°F49°F48°F47°F48°F48°F46°F43°F40°F40°F39°F
Feels Like 60°F61°F61°F61°F61°F59°F57°F50°F48°F47°F47°F46°F45°F45°F45°F45°F44°F45°F44°F48°F51°F55°F59°F62°F64°F65°F66°F66°F66°F64°F62°F55°F51°F50°F52°F51°F52°F51°F48°F47°F46°F46°F45°F42°F37°F34°F33°F32°F
Cloudiness 18%18%16%13%11%8%5%4%0%0%33%38%44%53%100%98%93%92%94%95%91%93%90%81%66%57%10%8%7%7%7%6%5%7%27%30%39%44%5%11%12%22%36%47%99%99%99%100%
Visibility 6 mi6 mi6 mi6 mi6 mi6 mi6 mi6 mi6 mi6 mi6 mi6 mi6 mi6 mi6 mi6 mi6 mi6 mi6 mi6 mi6 mi6 mi6 mi6 mi6 mi6 mi6 mi6 mi6 mi6 mi6 mi6 mi6 mi6 mi6 mi6 mi6 mi6 mi6 mi6 mi6 mi6 mi6 mi6 mi6 mi6 mi6 mi6 mi
Precipitation 2%2%0%0%0%0%0%0%0%0%0%0%0%0%0%0%0%0%0%0%0%0%0%0%0%0%0%0%0%0%0%0%0%0%0%0%0%0%0%0%0%0%15%31%0%0%0%0%
Humidity 46%45%45%44%45%47%54%70%74%79%82%85%86%86%85%83%81%79%79%74%61%54%47%40%37%35%34%34%35%38%49%66%70%71%66%67%67%72%83%87%89%90%89%91%88%88%87%85%
Dew Point 41°F41°F41°F41°F41°F41°F42°F42°F40°F40°F41°F41°F41°F40°F40°F39°F38°F38°F37°F39°F40°F40°F40°F39°F38°F38°F38°F38°F39°F40°F44°F44°F43°F42°F42°F42°F42°F43°F43°F44°F44°F44°F44°F43°F39°F36°F35°F34°F
Pressure 29.94"29.94"29.94"29.94"29.91"29.94"29.94"29.97"30"30.03"30.03"30.03"30.06"30.06"30.03"30.03"30.06"30.06"30.06"30.06"30.06"30.03"30.03"30"30"29.97"29.94"29.91"29.91"29.88"29.88"29.91"29.94"29.94"29.94"29.94"29.91"29.94"29.91"29.94"29.91"29.94"29.97"30"30.03"30.09"30.12"30.12"
Wind Speed 9.9 mph10.2 mph9.7 mph9.2 mph10.3 mph9.7 mph5.9 mph2.7 mph3.1 mph3 mph2.5 mph2.6 mph2.1 mph2.7 mph2.4 mph2.6 mph2.7 mph1.3 mph2.1 mph2.2 mph2.2 mph3.6 mph5.2 mph6.3 mph7.5 mph7.9 mph8.2 mph8.2 mph8.2 mph7.9 mph5.6 mph3.4 mph3.4 mph3.1 mph2.9 mph3.3 mph3.4 mph3.6 mph3.4 mph3.7 mph4.1 mph4.7 mph6.9 mph6.8 mph9.5 mph9.4 mph10.3 mph11.4 mph
Wind
Direction
331°
NNW
331°
NNW
330°
NNW
329°
NNW
331°
NNW
338°
NNW
348°
NNW
357°
N

N
354°
N
341°
NNW
16°
NNE
54°
NE
72°
ENE
61°
ENE
85°
E
110°
ESE
154°
SSE
102°
ESE
99°
E
118°
ESE
138°
SE
178°
S
195°
SSW
203°
SSW
213°
SSW
222°
SW
229°
SW
232°
SW
233°
SW
238°
WSW
239°
WSW
216°
SW
185°
S
179°
S
176°
S
193°
SSW
210°
SSW
200°
SSW
203°
SSW
230°
SW
274°
W
309°
NW
325°
NW
328°
NNW
332°
NNW
332°
NNW
331°
NNW

Daily Forecast

Date High Low Precip. Humidity
Today
Apr 19

Clouds
63 °F
44 °F
28%
46%
Tuesday
Apr 20

Clouds
68 °F
44 °F
0%
37%
Wednesday
Apr 21

Rain
54 °F
34 °F
31%
69%
Thursday
Apr 22

Clouds
55 °F
30 °F
0%
37%
Friday
Apr 23

Clouds
63 °F
32 °F
0%
25%
Saturday
Apr 24

Rain
52 °F
44 °F
100%
97%
Sunday
Apr 25

Rain
59 °F
44 °F
100%
76%
Monday
Apr 26

Clear
71 °F
40 °F
0%
39%
Tuesday
Apr 27

Clouds
70 °F
49 °F
0%
61%
Wednesday
Apr 28

Rain
75 °F
57 °F
79%
71%
Thursday
Apr 29

Rain
71 °F
55 °F
92%
83%
Friday
Apr 30

Clouds
77 °F
50 °F
0%
42%
Saturday
May 1

Rain
78 °F
55 °F
100%
47%
Sunday
May 2

Rain
74 °F
62 °F
96%
90%
Monday
May 3

Rain
75 °F
61 °F
100%
56%
Tuesday
May 4

Rain
67 °F
49 °F
77%
39%

Temperature 8-14 Day Outlook



Precipitation 8-14 Day Outlook




Quick Links
Lake Blue Ridge News
Lake Blue Ridge Photos
Lake Blue Ridge Videos




About Us
Contact Us
Site Map
Search Site
Advertise With Us
   
BlueRidge.USLakes.info
THE LAKE BLUE RIDGE WEBSITE

Copyright 2021, Lakes Online
Privacy    |    Legal